Location: Unspecified
(0.0000°N, 0.0000°E)
Time: 00:07:56
(UTC+02:00)

ARIANE 5 R/B - Visible Passes

Search period start: 24 April 2014 00:00
Search period end: 04 May 2014 00:00
Orbit: 566 x 35565 km, 5.3° (Epoch: 23 April)

Date Brightness Start Highest point End Pass type
(mag) Time Alt. Az. Time Alt. Az. Time Alt. Az.
24 Apr 5.7 14:42:09 10° W 15:45:31 70° N 15:51:14 10° E visible
25 Apr 7.6 03:27:26 81° SW 06:26:15 88° S 12:50:37 10° E visible
25 Apr 6.1 23:48:45 10° W 00:35:34 35° E 09:44:14 10° E visible
26 Apr 3.3 20:48:53 10° W 20:52:26 75° S 20:59:12 18° E visible
27 Apr 11.2 02:41:32 10° E 04:52:28 20° E 06:04:49 10° E visible
28 Apr 6.2 05:25:56 40° W 14:46:34 74° N 14:54:11 10° E visible
29 Apr 8.1 02:34:03 76° ESE 07:09:49 90° S 11:52:42 10° E visible
29 Apr 5.1 22:51:37 10° W 23:42:10 21° E 08:42:45 10° E visible
01 May 9.2 07:32:29 10° W 08:53:43 24° W 11:38:43 10° W visible
02 May 6.8 04:32:27 57° WSW 13:46:31 76° N 13:56:58 10° E visible
03 May 7.0 00:54:57 10° W 08:00:18 88° N 10:54:12 10° E visible
03 May 4.5 21:54:31 10° W 21:59:44 72° S 22:03:52 47° ESE visible
